CW2927 Weather Reports


time (UTC)temp
C
wind
direction
speed
KPH
gust
KPH
rain 1hr
cm
rain 24hr
cm
rain mn
cm
humidity
%
barometer
mb
20260510154704 16 240 11.3 24.1 0.00 0.03 0.03 49 1008.3
20260510154204 16 237 8.0 24.1 0.00 0.03 0.03 51 1008.4
20260510152704 15 298 9.7 19.3 0.00 0.03 0.03 57 1008.1
20260510152204 15 273 6.4 24.1 0.00 0.03 0.03 58 1008.1
20260510150704 16 265 8.0 19.3 0.00 0.03 0.03 60 1007.9
20260510150204 16 212 9.7 20.9 0.00 0.03 0.03 59 1007.9
20260510144705 15 200 6.4 24.1 0.00 0.03 0.03 57 1007.9
20260510144204 15 210 6.4 24.1 0.00 0.03 0.03 58 1007.9
20260510142704 14 210 8.0 14.5 0.00 0.03 0.03 59 1007.9
20260510142205 13 232 8.0 19.3 0.00 0.03 0.03 60 1007.8
20260510140707 13 207 6.4 20.9 0.00 0.03 0.03 61 1008.0
20260510140207 13 201 6.4 22.5 0.00 0.03 0.03 61 1007.9
20260510134704 13 225 8.0 20.9 0.00 0.03 0.03 66 1007.8
20260510134204 13 208 8.0 22.5 0.00 0.03 0.03 69 1007.7
20260510132704 13 236 8.0 16.1 0.00 0.03 0.03 66 1007.6
20260510132204 13 246 6.4 12.9 0.00 0.03 0.03 67 1007.6
20260510130704 13 233 8.0 20.9 0.00 0.03 0.03 70 1007.5
20260510130204 13 229 11.3 25.7 0.00 0.03 0.03 70 1007.4
20260510124704 13 208 9.7 14.5 0.00 0.03 0.03 74 1007.3
20260510124204 13 218 8.0 16.1 0.00 0.03 0.03 76 1007.2
20260510122204 12 209 4.8 32.2 0.00 0.03 0.03 81 1007.3
20260510120704 12 189 4.8 9.7 0.00 0.03 0.03 83 1007.2
20260510120204 12 211 8.0 25.7 0.00 0.03 0.03 84 1007.1
20260510114704 12 184 9.7 19.3 0.00 0.03 0.03 86 1006.9
20260510114204 11 165 6.4 14.5 0.00 0.03 0.03 86 1006.7
20260510112704 11 184 6.4 14.5 0.00 0.03 0.03 87 1006.7
20260510112203 11 168 4.8 14.5 0.00 0.03 0.03 87 1006.8
20260510110704 11 186 8.0 19.3 0.00 0.03 0.03 87 1006.5
20260510110204 11 163 4.8 19.3 0.00 0.03 0.03 87 1006.6
20260510104704 11 171 4.8 11.3 0.00 0.03 0.03 88 1006.2
20260510104204 11 162 4.8 12.9 0.00 0.03 0.03 88 1006.3
20260510102704 10 182 4.8 19.3 0.00 0.03 0.03 88 1006.2
20260510102204 10 174 8.0 14.5 0.00 0.03 0.03 88 1006.1
20260510100704 10 171 6.4 14.5 0.00 0.03 0.03 88 1005.7
20260510100204 10 171 3.2 9.7 0.00 0.03 0.03 88 1005.6
20260510094704 10 169 4.8 8.0 0.00 0.03 0.03 88 1005.4
20260510094204 10 164 4.8 12.9 0.00 0.03 0.03 88 1005.4
20260510092704 10 162 6.4 12.9 0.00 0.03 0.03 88 1005.2
20260510092204 10 165 8.0 16.1 0.00 0.03 0.03 88 1005.2
20260510090704 10 161 4.8 11.3 0.00 0.03 0.03 88 1005.2
20260510084704 10 148 8.0 14.5 0.00 0.03 0.03 88 1005.2
20260510082704 10 173 8.0 11.3 0.00 0.03 0.03 88 1005.2
20260510082203 10 171 4.8 12.9 0.00 0.03 0.03 88 1005.1
20260510080703 10 151 4.8 8.0 0.03 0.03 0.03 88 1005.0
20260510080204 10 144 4.8 14.5 0.03 0.03 0.03 88 1005.1
20260510074705 10 156 4.8 9.7 0.03 0.03 0.03 87 1005.1
20260510074205 10 130 4.8 12.9 0.03 0.03 0.03 87 1005.1
20260510072705 10 137 4.8 9.7 0.03 0.03 0.03 86 1005.2
20260510072206 10 157 4.8 12.9 0.03 0.03 0.03 86 1005.1
20260510070705 10 165 6.4 11.3 0.00 0.00 0.00 84 1005.3
20260510070205 10 163 8.0 14.5 0.00 0.00 0.00 83 1005.2
20260510064705 10 151 6.4 16.1 0.00 0.00 0.00 81 1005.1
20260510064205 10 165 6.4 19.3 0.00 0.00 0.00 80 1005.1
20260510062705 10 153 8.0 16.1 0.00 0.00 0.00 80 1005.1
20260510062205 10 154 8.0 16.1 0.00 0.00 0.00 80 1005.1
20260510060705 10 151 8.0 16.1 0.00 0.00 0.00 79 1005.1
20260510060205 10 142 9.7 27.4 0.00 0.00 0.00 79 1005.1
20260510054706 10 125 8.0 33.8 0.00 0.00 0.00 79 1005.1
20260510054205 10 134 8.0 27.4 0.00 0.00 0.00 79 1005.1
20260510052705 10 136 8.0 25.7 0.00 0.00 0.00 79 1005.4
20260510052205 10 129 8.0 29.0 0.00 0.00 0.00 79 1005.4
20260510050705 10 118 8.0 14.5 0.00 0.00 0.00 78 1005.4
20260510050205 10 130 9.7 25.7 0.00 0.00 0.00 78 1005.3
20260510044705 10 144 14.5 32.2 0.00 0.00 0.00 78 1005.2
20260510044205 10 131 9.7 22.5 0.00 0.00 0.00 79 1005.2
20260510042705 10 135 4.8 14.5 0.00 0.00 0.00 79 1005.2
20260510042206 10 137 11.3 24.1 0.00 0.00 0.00 79 1005.2
20260510040705 10 144 6.4 16.1 0.00 0.00 0.00 78 1005.6
20260510040205 10 132 6.4 16.1 0.00 0.00 0.00 78 1005.4
20260510034705 10 111 6.4 16.1 0.00 0.00 0.00 77 1005.4
20260510034205 10 123 4.8 20.9 0.00 0.00 0.00 76 1005.5
20260510032705 10 129 8.0 20.9 0.00 0.00 0.00 76 1005.9
20260510032205 10 139 4.8 16.1 0.00 0.00 0.00 75 1006.0
20260510030704 10 125 4.8 11.3 0.00 0.00 0.00 75 1006.3
20260510030205 10 129 6.4 14.5 0.00 0.00 0.00 74 1006.3
20260510024705 10 118 6.4 11.3 0.00 0.00 0.00 73 1006.5
20260510024205 10 137 4.8 14.5 0.00 0.00 0.00 73 1006.5
20260510022704 10 115 4.8 9.7 0.00 0.00 0.00 72 1006.5
20260510022205 10 131 4.8 14.5 0.00 0.00 0.00 72 1006.6
20260510020705 11 126 6.4 19.3 0.00 0.00 0.00 71 1006.5
20260510020205 11 116 6.4 14.5 0.00 0.00 0.00 70 1006.5
20260510014705 11 126 4.8 14.5 0.00 0.00 0.00 70 1006.6
20260510014204 11 125 6.4 25.7 0.00 0.00 0.00 69 1006.8
20260510012705 11 111 8.0 14.5 0.00 0.00 0.00 69 1006.9
20260510012205 11 129 4.8 25.7 0.00 0.00 0.00 69 1007.0
20260510010704 11 124 8.0 22.5 0.00 0.00 0.00 69 1007.0
20260510010205 11 122 4.8 25.7 0.00 0.00 0.00 70 1007.1
20260510004705 11 146 6.4 16.1 0.00 0.00 0.00 70 1007.0
20260510004204 11 150 8.0 29.0 0.00 0.00 0.00 70 1007.0
20260510002705 11 127 6.4 12.9 0.00 0.00 0.00 69 1006.8
20260510002204 11 128 6.4 20.9 0.00 0.00 0.00 69 1006.9
20260510000705 11 137 8.0 16.1 0.00 0.00 0.00 67 1006.8
20260510000205 12 119 8.0 19.3 0.00 0.00 0.00 67 1006.8
20260509234704 12 140 8.0 16.1 0.00 0.00 0.00 65 1006.9
20260509234205 12 144 4.8 19.3 0.00 0.00 0.00 64 1007.0
20260509232705 12 124 8.0 19.3 0.00 0.00 0.00 63 1006.9
20260509232205 13 135 8.0 20.9 0.00 0.00 0.00 62 1006.9
20260509230705 13 139 8.0 16.1 0.00 0.00 0.00 59 1006.8
20260509230204 14 130 8.0 24.1 0.00 0.00 0.00 58 1006.9
20260509224705 15 148 6.4 14.5 0.00 0.00 0.00 55 1006.7
20260509224205 15 129 8.0 27.4 0.00 0.00 0.00 54 1006.6
20260509222704 15 122 11.3 24.1 0.00 0.00 0.00 49 1006.5
20260509222204 16 130 9.7 20.9 0.00 0.00 0.00 49 1006.4
20260509220704 16 139 8.0 20.9 0.00 0.00 0.00 45 1006.4
20260509220204 16 133 9.7 22.5 0.00 0.00 0.00 44 1006.3
20260509214704 17 120 14.5 29.0 0.00 0.00 0.00 41 1006.3
20260509214205 17 134 9.7 32.2 0.00 0.00 0.00 40 1006.3
20260509212705 17 142 9.7 25.7 0.00 0.00 0.00 39 1006.3
20260509212205 17 145 12.9 29.0 0.00 0.00 0.00 37 1006.2
20260509210704 18 139 9.7 20.9 0.00 0.00 0.00 31 1006.1
20260509210204 18 114 8.0 19.3 0.00 0.00 0.00 30 1006.1
20260509204704 18 122 6.4 19.3 0.00 0.00 0.00 30 1006.1
20260509204205 18 139 8.0 27.4 0.00 0.00 0.00 30 1006.3
20260509202704 18 130 9.7 19.3 0.00 0.00 0.00 30 1006.3
20260509202205 18 161 9.7 24.1 0.00 0.00 0.00 29 1006.3
20260509200705 18 111 8.0 16.1 0.00 0.00 0.00 29 1006.4
20260509200204 18 157 6.4 25.7 0.00 0.00 0.00 29 1006.4
20260509194704 18 114 8.0 16.1 0.00 0.00 0.00 29 1006.4
20260509194204 18 154 4.8 22.5 0.00 0.00 0.00 29 1006.4
20260509192704 18 114 8.0 20.9 0.00 0.00 0.00 29 1006.6
20260509192204 18 129 11.3 19.3 0.00 0.00 0.00 29 1006.6
20260509190704 18 106 4.8 11.3 0.00 0.00 0.00 30 1006.7
20260509190205 18 145 8.0 19.3 0.00 0.00 0.00 32 1006.9
20260509184704 18 125 4.8 11.3 0.00 0.00 0.00 33 1007.2
20260509184204 18 163 4.8 14.5 0.00 0.00 0.00 32 1007.3
20260509182705 18 118 4.8 11.3 0.00 0.00 0.00 33 1007.7
20260509182205 18 172 4.8 16.1 0.00 0.00 0.00 35 1007.8
20260509180704 18 116 3.2 8.0 0.00 0.00 0.00 33 1007.9
20260509180205 17 120 4.8 16.1 0.00 0.00 0.00 34 1008.1
20260509174704 17 170 6.4 12.9 0.00 0.00 0.00 33 1008.4
20260509174204 17 128 4.8 16.1 0.00 0.00 0.00 32 1008.4
20260509172704 17 110 8.0 19.3 0.00 0.00 0.00 33 1008.6
20260509172204 17 170 4.8 19.3 0.00 0.00 0.00 35 1008.7
20260509170705 17 173 4.8 9.7 0.00 0.00 0.00 36 1008.9
20260509170205 17 189 4.8 16.1 0.00 0.00 0.00 35 1008.9
20260509164704 17 194 6.4 16.1 0.00 0.00 0.00 36 1009.2
20260509164204 17 199 4.8 24.1 0.00 0.00 0.00 34 1009.2
20260509162704 17 243 4.8 11.3 0.00 0.00 0.00 36 1009.5
20260509162205 17 178 6.4 14.5 0.00 0.00 0.00 34 1009.6
20260509160704 16 165 8.0 14.5 0.00 0.00 0.00 35 1009.7
20260509160205 16 169 8.0 14.5 0.00 0.00 0.00 36 1009.9